Regional Weather Roundup
Issued by NWS Midland/Odessa, TX

Home | Current Version | Previous Version | Text Only | Print | Product List | Glossary On
Versions: 1 2 3 4 5 6 7 8 9 10 11 12 13 14 15 16 17 18 19 20 21 22 23 24 25 26 27 28 29 30 31 32 33 34 35 36 37 38 39 40 41 42 43 44 45 46 47 48 49 50
000
ASUS44 KMAF 280410
RWRMAF
MIDLAND AREA WEATHER ROUNDUP
NATIONAL WEATHER SERVICE MIDLAND TX
1100 PM CDT WED MAY 27 2015

...IN SOUTHWEST TEXAS AND SOUTHEAST NEW MEXICO...

CITY           SKY/WX    TMP DP  RH WIND       PRES   REMARKS
ALPINE         MOCLDY    72  61  67 E6        30.13R
ANDREWS        FAIR      68  57  66 S8        30.01F
ARTESIA        PTCLDY    70  54  56 S9        30.01R
BIG SPRING     CLOUDY    81  66  61 SE16      30.02F
CARLSBAD       PTCLDY    75  58  55 S10       29.98R
DRYDEN           N/A     80  67  64 E13G25    29.96S
FORT STOCKTON  LGT RAIN  72  68  87 E15       30.05F
GUAD PASS      MOCLDY    67  58  72 NE30G38   30.11R
HOBBS          PTCLDY    68  48  49 SE12      30.02R
MARFA          PTCLDY    70  57  64 E8        30.11R
MIDLAND AIRPK  CLOUDY    80  65  59 S13       30.02F
MIDLAND INTL   CLOUDY    79  66  64 S22       30.02S
ODESSA         CLOUDY    80  63  55 S22G28    30.03S
PECOS          CLOUDY    73  63  72 SE14      29.98R
PRESIDIO       FAIR      85  54  34 E18       29.89R
SEMINOLE       MOCLDY    74  61  63 S13G21    30.00F
SNYDER         LGT RAIN  74  66  78 SE12      30.03R
WINK           CLOUDY    79  66  64 SE18G30   29.96R
$$
...OTHER STATIONS IN TEXAS...

CITY           SKY/WX    TMP DP  RH WIND       PRES   REMARKS
ABILENE        MOCLDY    76  69  79 SE10      30.02R
AMARILLO       PTCLDY    68  61  78 SE25G32   30.04R
AUSTIN         PTCLDY    74  72  93 E5        30.05R
BROWNSVILLE    CLOUDY    81  78  91 E13       29.99R
CORPUS CHRISTI PTCLDY    80  76  87 SE14      30.00S
DALLAS FTW     CLOUDY    72  68  87 NE5       30.02R
DEL RIO        CLOUDY    81  69  67 E8        29.96R
EL PASO        MOCLDY    81  21  11 N6        29.95R
HOUSTON INT    MOCLDY    75  71  87 SE6       30.08R
LUBBOCK        CLOUDY    74  64  71 SE23G31   29.98R
SAN ANGELO     CLOUDY    74  66  76 E6        30.04R
SAN ANTONIO    CLOUDY    78  73  84 SE14      30.03R
WACO           MOCLDY    77  71  82 SE9       30.05R
WICHITA FALLS  NOT AVBL
$$
...OTHER LOCATIONS IN NEW MEXICO...

CITY           SKY/WX    TMP DP  RH WIND       PRES   REMARKS
ALAMAGORDO     MOCLDY    72  19  14 NE8       29.99S
ALBUQUERQUE    CLOUDY    72  33  24 NE8       30.05S
CANNON AFB     NOT AVBL
CLOVIS         PTCLDY    64  55  72 S8          N/A
HOLLOMAN AFB   NOT AVBL
ROSWELL        PTCLDY    71  52  50 S12       29.98R
RUIDOSO        PTCLDY    57  19  23 SW8       30.20S
SANTA FE       MOCLDY    64  33  31 E5        30.13R
TRUTH OR CONSE CLEAR     72  12  10 SW6       30.01R
TUCUMCARI      PTCLDY    64  51  62 S8        29.99R
$$



USA.gov is the U.S. government's official web portal to all federal, state and local government web resources and services.